Flag for U.S.A. Weather past 2 weeks in Cambridge, Massachusetts, U.S.A.

Now
67 °F

Clear.


Feels Like: 67 °F
Forecast: 55 / 76 °F
Wind: 16 mph from Southwest

Location: Logan International Airport

Current Time: May 5, 2015 at 1:19:17 AM

Latest Report: May 5, 2015 at 12:54 AM


Visibility: 10 mi

Pressure: 30.07 "Hg

Humidity: 39%

Dew point: 41 °F

Location of CambridgeLocation

Historic Weather in Cambridge — Graph

°F

Cambridge temperature yesterday

Maximum temperature yesterday: 82 °F (at 2:54 PM)
Minimum temperature yesterday: 50 °F (at 2:54 AM)
Average temperature yesterday: 66 °F

Past Weeks' High & Low Weather Summary

 TemperatureHumidityPressure
High82 °F (May 4, 2:54 PM)100% (Apr 20, 6:54 PM)30.25 "Hg (Apr 20, 6:54 PM)
Low36 °F (Apr 25, 5:54 AM)23% (May 4, 6:54 PM)29.53 "Hg (Apr 21, 9:54 AM)
Average50 °F64%29.81 "Hg
* Reported Apr 19 11:54 PM — May 4 11:54 PM, Cambridge, Weather by CustomWeather, © 2015

Note: Actual official high and low records may vary slightly from our data, if they occured in-between our weather recording intervals... More about our weather records

Advertising

Cambridge weather history for previous 24 hours

 ConditionsComfort  
Time TempWeatherWind HumidityBarometerVisibility
11:54 PM
Mon, May 4
65 °FPassing clouds.12 mph42%30.08 "Hg10 mi
10:54 PM68 °FPassing clouds.15 mph36%30.09 "Hg10 mi
9:54 PM70 °FPassing clouds.18 mph34%30.10 "Hg10 mi
8:54 PM71 °FPassing clouds.16 mph32%30.09 "Hg10 mi
7:54 PM74 °FPassing clouds.18 mph27%30.07 "Hg10 mi
6:54 PM78 °FPassing clouds.23 mph23%30.06 "Hg10 mi
5:54 PM80 °FScattered clouds.23 mph26%30.05 "Hg10 mi
4:54 PM79 °FScattered clouds.20 mph29%30.06 "Hg10 mi
3:54 PM78 °FScattered clouds.18 mph29%30.07 "Hg10 mi
2:54 PM82 °FScattered clouds.20 mph25%30.09 "Hg10 mi
1:54 PM80 °FPassing clouds.10 mph27%30.11 "Hg10 mi
12:54 PM80 °FPassing clouds.12 mph30%30.13 "Hg10 mi
11:54 AM76 °FPassing clouds.8 mph37%30.16 "Hg10 mi
10:54 AM73 °FPassing clouds.9 mph40%30.18 "Hg10 mi
9:54 AM69 °FPassing clouds.8 mph44%30.18 "Hg10 mi
8:54 AM62 °FPassing clouds.9 mph56%30.19 "Hg10 mi
7:54 AM56 °FPassing clouds.9 mph70%30.19 "Hg10 mi
6:54 AM52 °FScattered clouds.12 mph77%30.19 "Hg10 mi
5:54 AM50 °FPassing clouds.10 mph83%30.17 "Hg10 mi
4:54 AM50 °FPassing clouds.8 mph80%30.16 "Hg10 mi
3:54 AM50 °FPassing clouds.7 mph80%30.16 "Hg10 mi
2:54 AM50 °FClear.7 mph77%30.16 "Hg10 mi
1:54 AM51 °FPassing clouds.8 mph74%30.16 "Hg10 mi
Weather by CustomWeather, © 2015

See weather overviewHow to use our weather pages